Location: Maccacari
(45.1333°N, 11.1333°E)
Time: 08:37:27
(UTC+00:00)

Cosmos 1743 - Pass Details

Date: 18 September 2020
Orbit: 510 x 526 km, 82.6° (Epoch: 29 October)

Event Time Altitude Azimuth Distance (km) Brightness Sun altitude
Rises 17:39:52 0° 192° (SSW) 2,635 6.4 -4.3°
Reaches altitude 10° 17:42:00 10° 195° (SSW) 1,749 5.5 -4.7°
Maximum altitude 17:45:50 71° 280° (W) 553 3.1 -5.4°
Drops below altitude 10° 17:49:40 10° 4° (N) 1,755 5.5 -6.0°
Sets 17:51:49 0° 7° (N) 2,644 6.3 -6.4°
